RH
17 12 11 10 11 13 16 19 22 25 27 29 32 34 33 34 36 38 40 48 67 84 90 91 87 85 83 84 88 93 98 101 103 103 102 103 103 101 97 94 92 91 90 86 79 71 68 69 67 61 57 57 57 55 48 39 30 23 19 16 16 16 17 18 20 22 24 25 26 26 26 26 27 28 29 29 30 30 29 29 30 29 30 30 30 29 29 29
16 10 9 8 8 11 14 17 21 25 30 30 31 34 32 32 36 39 44 54 75 95 104 106 101 98 97 99 102 104 104 104 106 105 104 106 105 102 100 100 99 95 87 77 72 71 71 68 63 60 60 58 51 41 31 23 19 17 16 17 17 18 20 22 25 27 28 29 29 28 28 28 28 28 29 29 29 29 29 29 29 28 28 29 28 28 28 27
16 11 8 8 8 9 12 17 24 31 35 34 33 33 31 31 37 46 55 67 84 97 105 104 101 102 104 107 109 108 108 108 107 106 106 107 104 101 104 104 98 87 76 73 74 73 69 64 63 62 56 45 33 24 19 17 17 17 18 19 20 22 25 27 28 29 30 29 29 28 28 28 28 28 28 28 29 28 28 27 28 27 27 28 27 26 26 25
15 10 8 9 8 9 15 19 23 32 37 40 44 44 43 43 50 62 68 74 82 88 91 92 95 102 107 110 111 110 110 110 109 108 106 104 102 102 103 97 85 77 74 75 74 69 66 65 61 52 38 27 21 18 17 17 18 19 20 23 25 27 28 29 29 29 28 28 27 27 27 27 28 30 29 28 28 28 28 27 27 26 26 26 26 26 26 25
15 11 14 14 13 13 23 35 33 34 37 43 51 53 55 60 70 83 89 90 90 91 93 96 103 107 109 111 109 107 106 106 105 104 103 103 102 100 93 83 77 76 76 74 70 69 66 58 44 31 22 19 18 18 18 20 21 23 25 27 28 28 28 27 27 27 27 28 28 28 28 29 30 31 29 28 27 27 28 28 28 28 27 27 27 27 26 25
15 15 24 23 26 28 38 67 70 54 55 59 60 58 61 69 81 96 103 103 102 102 103 105 108 107 108 109 105 103 101 101 103 103 102 101 96 89 83 79 79 77 74 72 70 64 52 37 26 20 18 18 19 20 22 24 25 27 27 27 26 26 26 25 26 27 28 29 30 30 30 31 30 30 30 29 29 29 30 30 30 30 30 29 28 28 27 25
16 22 41 38 40 57 65 87 97 85 83 81 74 68 67 72 81 96 104 103 102 101 102 104 105 104 104 103 101 101 102 104 104 101 98 92 87 84 82 81 78 75 74 70 60 45 31 22 19 18 19 20 23 25 26 27 27 26 26 25 24 24 24 25 27 28 30 32 31 31 31 30 29 30 31 32 33 33 33 33 33 33 32 31 30 29 27 26
23 31 66 73 58 77 90 92 101 105 101 90 81 71 68 75 82 93 103 105 104 102 102 103 102 102 103 102 103 104 106 105 101 96 92 89 86 84 81 79 77 75 67 53 38 26 21 19 19 21 23 25 27 27 27 26 25 24 24 23 23 24 26 28 29 30 32 33 33 31 31 30 31 33 35 38 39 39 38 37 36 35 34 33 32 31 29 27
38 44 67 92 85 89 96 93 99 105 105 99 89 72 63 71 81 90 100 103 104 103 102 101 101 103 105 106 106 106 104 101 98 96 93 89 85 82 81 79 73 61 45 32 24 20 20 21 23 26 27 28 27 26 25 24 24 23 23 24 25 26 30 32 32 33 34 34 33 31 32 34 37 39 40 43 44 44 43 41 39 37 36 35 34 33 31 29
50 61 57 75 93 100 96 90 97 102 105 106 100 87 71 66 72 81 88 92 96 97 97 99 101 103 106 107 105 103 102 101 99 94 88 84 83 83 79 69 54 39 28 22 20 21 23 25 28 28 28 27 25 24 24 24 25 24 25 26 28 30 34 36 36 36 36 35 34 32 34 40 45 48 49 50 49 48 46 44 41 39 37 36 35 35 34 31
47 70 64 59 77 98 102 95 99 104 104 105 106 103 86 68 65 69 74 79 82 86 93 99 103 105 105 104 103 104 102 98 92 86 83 84 84 78 64 48 33 25 21 21 23 25 28 29 28 27 25 25 24 25 26 26 27 28 28 29 33 36 38 39 38 38 37 36 37 37 39 45 53 58 58 57 55 52 49 46 43 40 38 36 35 35 34 32
45 62 69 61 64 84 101 105 105 105 106 106 104 102 88 70 64 70 79 84 88 94 101 104 104 105 103 101 103 103 98 90 86 85 87 84 74 58 41 30 23 22 23 24 27 29 29 28 26 25 24 25 25 26 28 30 32 34 34 34 38 40 40 40 40 40 39 39 43 45 45 49 55 60 59 57 55 52 49 46 43 41 38 36 35 34 34 32
50 53 67 63 55 67 88 99 101 99 102 103 99 93 81 70 72 85 96 99 103 106 106 105 104 104 103 104 104 98 91 87 88 88 83 69 52 37 27 23 22 25 27 29 30 29 27 26 25 25 25 26 26 27 30 34 38 40 39 38 38 39 39 40 41 42 42 45 51 51 51 53 56 59 59 56 54 54 50 46 43 40 38 36 34 33 33 32
59 49 61 59 50 60 72 76 80 81 82 86 86 84 80 81 91 102 107 106 106 104 105 107 105 104 104 103 98 91 88 90 89 80 63 46 32 25 23 24 27 29 31 30 29 27 26 25 25 25 26 27 29 31 36 39 40 40 39 38 38 37 39 41 43 45 46 49 53 54 54 55 56 58 58 55 56 58 54 47 43 40 38 36 35 33 33 33
73 54 51 58 57 58 62 65 68 66 67 72 76 81 88 95 102 104 105 104 102 101 105 108 106 105 102 97 92 91 92 87 75 57 40 30 25 24 25 28 31 31 30 28 27 26 26 26 26 27 28 30 32 36 39 40 39 38 38 37 37 36 39 44 46 47 48 50 52 53 53 54 55 55 54 54 58 60 56 49 44 41 39 36 35 33 32 32
85 66 45 53 59 53 59 68 69 69 76 83 86 89 92 95 99 102 102 99 99 100 103 103 102 100 97 94 94 92 84 68 50 36 27 25 25 27 29 32 32 30 28 26 26 26 27 27 27 29 31 34 37 39 39 39 38 37 38 39 36 35 39 44 46 46 46 47 49 49 49 51 53 52 50 53 58 60 57 51 45 41 39 36 34 32 31 31
81 68 45 48 59 60 62 62 66 78 88 93 92 89 90 95 100 101 98 95 95 98 99 99 100 98 97 96 90 78 61 44 32 27 25 26 29 31 32 32 30 28 27 26 26 27 28 29 30 32 34 37 39 38 38 38 37 37 38 41 39 35 37 41 44 44 44 45 46 47 48 50 50 47 48 51 54 58 58 52 46 41 39 37 35 32 31 30
69 62 46 48 61 69 74 74 74 78 79 81 82 86 94 99 96 90 89 94 97 98 98 100 102 99 94 86 72 54 39 30 27 26 28 30 33 33 32 30 28 26 25 26 29 30 31 31 31 33 34 35 36 36 37 36 35 35 35 39 39 35 35 39 42 42 43 44 45 46 47 47 46 44 45 47 49 53 57 53 45 42 39 38 36 33 32 30
57 53 46 52 64 73 81 83 80 78 79 80 84 93 101 98 90 88 93 100 100 100 101 101 96 88 79 66 48 35 28 27 28 29 32 34 35 33 31 28 26 25 26 29 31 31 30 30 31 32 33 34 35 35 35 33 33 34 34 35 37 37 35 37 41 42 42 44 46 45 46 46 44 43 44 44 45 50 55 52 45 43 41 40 38 35 32 29
47 49 48 58 72 77 79 81 83 89 92 88 87 94 98 95 94 99 103 104 101 101 99 92 83 73 61 44 32 27 28 29 31 33 35 35 34 31 28 26 26 27 29 30 30 30 30 31 32 32 34 34 34 33 31 32 33 33 35 35 36 38 38 37 40 43 42 46 49 45 46 51 47 46 48 43 43 50 54 52 47 45 43 41 39 35 30 28
44 54 57 64 75 80 81 83 87 92 93 89 86 89 94 97 100 102 102 102 101 96 90 81 71 58 41 30 27 28 30 32 34 36 36 34 31 28 27 26 27 28 28 28 29 29 30 31 32 32 33 32 32 31 30 31 33 33 35 36 36 37 40 39 41 47 47 47 52 50 47 54 56 52 50 44 43 51 54 52 48 45 44 41 37 35 31 28
45 63 72 75 80 85 86 88 92 95 96 91 89 92 98 100 101 100 99 100 97 88 81 73 57 39 29 26 29 31 34 37 37 36 34 31 29 27 26 26 26 26 27 29 30 30 30 31 32 32 32 32 31 30 30 31 32 33 35 37 38 37 38 39 40 47 52 48 55 58 48 52 59 52 46 44 42 48 53 51 49 46 44 41 38 36 33 29
42 66 81 88 95 99 98 100 103 102 98 93 93 99 102 101 100 100 98 96 91 83 72 56 38 28 27 29 32 35 38 39 37 34 31 29 28 27 27 26 26 27 27 29 30 29 30 30 31 32 31 32 32 32 32 31 31 34 36 39 41 39 36 38 40 45 54 57 61 67 58 50 55 51 43 42 39 43 51 51 49 47 44 42 40 37 34 29
34 59 79 92 102 106 105 105 103 99 97 97 100 104 102 100 100 99 96 93 90 78 56 38 29 26 28 33 38 40 39 37 34 31 30 30 29 28 27 26 26 27 28 29 30 30 30 30 30 31 31 31 32 34 34 33 38 44 46 43 40 39 38 37 39 43 55 64 62 69 70 54 49 50 44 39 38 40 47 51 48 46 43 41 41 38 34 30
26 47 71 85 94 102 105 101 96 95 100 103 105 108 105 100 101 99 97 94 85 62 38 28 28 27 31 38 41 39 36 34 31 30 30 30 29 28 27 27 27 29 31 32 31 30 30 29 29 30 31 29 29 32 35 40 47 49 48 46 42 44 43 36 37 43 52 62 60 65 71 56 45 52 48 40 40 40 42 49 49 46 44 42 40 39 36 31
20 37 59 77 89 97 98 95 96 101 104 104 105 109 107 104 104 101 98 89 65 41 29 27 29 31 37 40 38 36 34 31 29 29 29 29 30 30 29 29 30 32 33 32 29 30 30 29 29 29 29 30 31 36 44 49 49 45 45 49 50 49 47 40 38 43 48 55 58 56 58 53 47 52 54 47 43 41 40 47 51 47 44 42 40 40 37 33
18 30 48 69 85 93 92 94 101 104 102 103 106 108 106 105 104 99 91 71 43 29 28 28 32 37 39 39 36 34 31 29 28 28 28 29 30 31 32 33 33 32 32 31 30 29 29 29 27 26 28 32 37 43 51 52 48 47 47 50 51 50 51 49 42 39 44 50 53 48 47 59 64 60 57 51 44 41 39 44 51 49 44 42 40 40 38 35
16 26 39 57 73 85 91 95 100 100 100 105 108 106 104 105 100 87 69 47 31 28 29 32 38 39 38 37 34 31 29 28 28 28 29 29 29 32 35 36 34 32 29 31 32 29 28 28 27 27 29 34 42 47 50 49 47 46 47 48 51 51 53 54 46 38 42 49 52 51 51 65 81 76 61 49 43 41 38 41 48 49 45 42 40 39 39 38
15 24 34 46 61 75 86 92 97 100 102 104 106 105 102 98 84 63 44 33 29 30 32 37 40 38 36 34 30 29 29 29 29 30 29 29 29 32 34 35 37 37 33 31 31 30 29 29 30 33 35 39 46 49 47 48 48 47 48 49 50 50 50 53 51 41 38 45 51 58 61 63 70 74 65 51 45 43 38 38 46 49 45 42 40 39 39 39
14 21 29 39 49 59 69 79 87 94 99 103 105 102 91 76 57 41 32 29 29 32 37 40 39 36 34 30 28 29 29 30 30 30 29 29 30 31 31 32 35 38 37 33 33 36 38 38 40 43 43 46 51 51 49 50 51 50 48 44 42 45 45 46 49 42 34 40 49 57 66 66 58 59 63 56 49 44 37 36 43 49 47 42 42 41 40 39
16 20 24 30 38 48 61 75 88 98 103 103 96 83 66 50 38 32 30 30 31 36 39 39 37 34 31 29 29 30 31 32 31 31 32 32 32 31 30 30 30 32 35 38 42 45 44 44 48 51 51 52 53 54 53 52 50 47 42 39 39 40 39 40 44 41 34 36 46 52 62 69 61 56 61 59 51 43 35 33 40 48 49 44 41 40 39 38
18 22 28 38 52 66 80 92 100 100 94 83 70 56 43 35 32 30 31 33 37 40 40 38 35 31 30 30 30 32 34 34 32 32 32 31 30 29 29 31 32 33 35 38 40 39 40 45 52 56 57 53 49 48 48 45 43 42 39 38 37 34 35 37 37 40 38 36 44 52 56 63 64 62 63 59 50 41 33 32 37 45 50 46 41 39 38 37
30 39 53 66 78 86 90 92 89 80 68 57 47 38 32 30 30 31 34 37 41 41 39 35 32 30 30 30 32 34 35 34 33 32 31 30 30 31 32 34 34 33 32 31 32 37 45 50 51 52 52 46 41 38 37 38 38 38 36 34 31 29 31 32 31 35 40 37 41 50 52 55 62 66 65 59 50 42 34 32 35 41 47 47 43 40 39 38
49 58 67 75 80 79 77 74 67 58 48 39 34 31 30 30 31 34 37 40 42 41 37 33 32 31 31 32 33 34 35 35 34 33 32 32 33 34 35 34 32 31 32 35 38 45 51 51 47 45 43 39 36 33 33 35 37 36 36 34 31 31 30 31 32 34 37 37 37 43 49 54 61 67 66 59 50 44 38 33 33 37 43 47 46 42 40 39
55 59 61 65 67 64 61 56 50 42 35 31 31 30 30 31 35 39 41 42 41 38 35 33 33 32 32 33 34 35 36 37 36 35 34 35 36 38 36 34 32 32 35 40 43 45 49 55 54 48 43 41 40 38 35 34 35 34 35 35 34 33 31 33 36 33 34 37 35 38 48 56 61 65 63 56 51 47 40 34 34 36 39 45 47 44 41 39
49 51 52 55 56 53 49 43 37 34 31 30 30 30 32 36 40 43 44 43 39 36 35 34 34 34 34 34 35 36 37 37 38 37 36 39 41 41 39 36 37 38 38 42 45 45 46 51 53 48 45 45 46 46 40 34 33 34 34 34 33 35 35 35 34 31 33 39 38 38 46 54 60 60 57 56 53 47 42 38 36 35 37 43 47 45 42 39
43 45 48 50 47 43 38 34 32 32 30 29 29 32 36 40 44 45 44 41 38 36 36 36 36 36 36 36 36 37 37 38 40 39 40 44 44 43 42 42 44 43 42 43 48 51 50 49 52 52 50 49 47 48 45 38 35 35 34 34 34 36 37 34 30 29 32 39 41 40 42 51 59 59 57 59 56 49 47 43 39 36 35 40 45 45 42 39
41 44 45 44 38 34 32 32 32 30 29 30 32 36 40 44 46 45 42 39 38 39 39 38 38 38 38 38 37 37 38 39 41 41 43 45 44 44 46 48 47 44 42 43 49 57 61 59 57 56 53 49 45 44 44 42 39 37 37 38 38 38 37 37 34 31 32 37 40 41 42 48 58 62 60 59 56 51 50 45 39 37 35 36 42 44 43 41
42 42 39 35 31 31 31 31 30 29 30 32 36 40 44 46 45 42 40 41 41 40 40 40 39 39 39 39 40 40 39 41 41 42 44 45 44 45 47 48 48 45 45 48 52 58 64 63 61 58 55 52 49 46 43 41 38 37 39 40 40 38 37 39 39 36 35 38 40 41 41 44 55 65 64 58 55 52 51 47 41 37 35 35 40 43 44 43
39 35 32 29 30 32 31 30 29 29 32 36 40 43 45 45 43 42 42 42 42 41 41 41 40 41 41 42 43 42 40 42 42 42 44 44 42 43 45 47 49 49 48 49 51 58 65 68 65 62 59 56 54 48 43 40 39 39 39 39 39 39 37 38 40 39 37 40 42 42 41 42 52 65 66 59 57 55 53 51 45 38 36 36 39 43 44 44
31 29 29 30 32 31 30 29 30 32 35 39 43 45 45 44 42 42 43 43 43 43 42 42 41 41 42 42 43 43 42 43 42 43 44 42 41 42 43 46 48 49 50 51 52 55 61 66 67 64 61 58 54 49 45 43 44 43 41 40 40 41 40 39 39 40 39 41 45 44 41 40 47 62 68 65 63 61 58 56 50 44 39 37 40 43 45 46
26 28 30 32 31 30 29 30 32 35 39 42 45 45 44 43 42 43 44 44 44 44 43 43 43 42 43 43 44 44 45 45 44 45 45 42 41 42 42 45 46 48 50 51 51 50 52 59 65 65 61 58 55 52 49 45 45 46 44 41 41 42 42 41 40 41 41 42 44 44 42 39 42 59 72 73 70 67 62 60 57 51 43 39 40 43 45 47
27 30 32 31 31 30 30 32 35 38 41 44 45 44 43 43 43 44 45 45 46 46 45 45 45 44 44 44 45 46 47 47 46 46 46 45 43 42 43 45 47 48 49 49 48 47 46 47 53 55 55 55 52 48 46 44 41 43 43 41 40 42 44 44 42 41 41 42 43 43 42 40 39 54 75 81 77 72 65 62 61 56 47 40 40 43 45 47
30 31 31 31 31 31 31 35 39 41 43 45 45 44 43 43 44 45 46 47 48 48 48 47 47 47 46 46 46 47 49 50 50 49 48 47 46 44 45 46 47 47 47 47 46 45 43 39 39 42 43 44 43 40 39 38 36 38 42 43 43 44 47 47 44 41 41 42 43 41 40 40 38 49 77 92 85 76 71 66 64 60 49 41 40 43 46 46
32 32 31 31 31 31 33 37 41 44 45 45 44 44 43 43 44 46 48 49 50 51 51 50 49 49 48 48 48 49 50 51 52 52 51 51 50 48 47 46 46 45 45 46 47 48 50 47 40 40 41 39 39 38 37 37 38 40 44 48 48 47 49 50 45 42 40 40 44 42 39 40 37 44 75 96 87 76 73 69 67 62 52 43 40 42 45 45
33 32 32 31 31 33 36 39 42 45 46 46 45 44 43 44 45 47 49 50 51 51 51 51 51 51 50 50 50 51 52 53 53 54 54 53 53 51 49 46 46 45 45 48 50 55 61 61 51 46 46 45 44 42 41 42 43 43 45 51 51 49 50 52 49 44 40 40 44 44 39 38 37 40 63 88 85 75 74 70 66 64 55 44 40 41 44 46
32 32 32 32 32 34 37 41 43 45 46 46 46 45 44 45 46 47 48 48 48 49 50 50 51 50 50 51 51 53 54 55 56 56 56 56 54 53 50 48 48 49 48 49 53 59 65 68 62 53 49 50 50 48 46 45 44 45 47 50 53 52 51 53 52 46 42 40 41 44 40 37 37 37 51 75 82 76 75 69 64 64 56 45 40 41 44 46
33 33 32 32 33 35 38 41 43 44 46 46 46 46 45 46 47 48 48 47 47 48 49 50 50 50 51 51 52 54 55 57 59 60 59 58 57 55 53 52 52 52 52 51 55 60 64 66 66 60 53 51 52 51 50 49 47 46 47 49 53 54 53 54 53 48 44 40 39 43 41 36 37 38 46 70 84 80 75 68 63 63 58 46 41 43 45 46
33 34 33 33 35 36 39 41 43 44 45 46 46 46 46 46 47 49 49 48 49 49 49 50 50 51 52 53 54 54 56 58 61 63 62 61 60 58 56 56 55 54 54 54 56 59 60 61 63 63 58 54 54 55 53 52 49 45 46 50 53 55 53 53 53 49 44 40 39 41 40 36 36 37 47 71 89 87 77 68 64 64 58 48 43 45 46 46
34 34 34 35 36 37 39 41 42 44 45 46 47 46 46 47 48 49 49 50 51 51 51 50 50 50 51 52 54 55 56 59 61 64 64 63 62 61 59 58 56 55 54 55 55 55 56 57 56 59 60 57 57 57 55 52 49 45 45 49 52 54 53 52 53 50 44 40 40 40 40 37 34 39 57 78 90 91 82 71 68 66 58 50 47 47 47 46
35 35 35 36 37 38 39 41 42 44 45 46 46 46 46 47 48 48 49 50 51 52 52 51 50 49 49 50 53 55 56 57 59 63 64 64 63 62 62 60 58 56 55 54 54 53 53 53 53 55 59 58 55 55 53 50 47 44 44 47 49 52 53 52 52 51 45 40 40 40 39 37 33 42 66 81 86 93 88 74 72 70 59 52 50 48 46 46
36 36 36 37 38 38 40 41 42 44 45 46 46 46 46 47 48 48 49 50 51 51 51 51 50 49 48 50 53 55 56 56 58 60 62 62 62 61 61 62 60 58 57 55 53 51 49 50 49 50 55 57 54 52 52 49 46 43 41 43 46 49 53 54 52 50 46 40 40 40 38 37 33 39 61 77 83 94 92 77 74 73 62 54 51 48 47 46
Wind_Speed
19 22 24 28 34 38 40 43 45 47 49 50 50 51 51 49 49 48 48 47 46 46 46 46 46 46 46 45 45 45 45 44 44 45 45 46 46 47 48 49 50 51 51 52 54 56 57 59 60 61 61 61 61 62 62 61 60 59 58 56 56 55 54 54 54 55 56 57 57 58 59 60 60 60 60 60 61 63 64 64 65 66 66 68 70 70 70 72
17 20 22 26 31 37 41 44 46 49 50 51 52 52 51 49 48 48 47 46 46 46 46 47 47 47 46 45 45 44 44 44 44 44 45 46 47 47 49 49 50 50 51 53 55 57 58 59 60 60 60 60 60 59 58 56 55 54 53 52 51 51 51 52 53 53 54 55 56 57 57 58 59 58 58 58 60 61 61 62 63 65 65 67 70 70 70 72
17 19 20 23 28 36 42 45 48 50 51 52 52 51 49 47 46 47 47 46 46 46 46 47 47 46 45 44 44 43 43 44 44 44 45 46 47 47 48 49 49 51 52 54 55 56 57 58 58 58 58 58 56 54 52 51 49 49 48 48 49 50 50 51 51 52 52 53 54 55 56 56 57 57 56 56 57 59 59 60 61 62 62 64 68 69 70 72
16 18 19 22 27 34 40 46 50 51 52 51 50 49 48 46 45 45 46 47 47 47 47 46 46 44 44 43 43 43 43 43 43 44 45 46 46 47 47 48 50 51 53 54 55 55 56 56 57 56 55 52 50 48 47 46 45 46 46 47 48 48 49 49 50 51 52 53 54 54 54 53 53 54 54 53 53 55 57 58 59 61 61 62 65 68 70 71
16 17 18 21 25 32 38 42 46 49 49 50 50 49 48 46 45 44 45 45 46 46 45 45 44 43 43 42 42 42 42 42 43 44 44 45 45 46 47 49 50 51 52 53 53 54 54 54 53 51 48 46 44 43 43 43 44 45 46 46 46 47 48 49 49 50 50 50 50 50 49 48 49 50 52 52 52 53 55 58 60 62 63 64 67 69 70 72
16 17 18 21 24 30 35 36 39 43 45 46 48 49 48 46 45 44 44 44 44 44 44 44 43 43 42 41 41 41 41 42 43 43 43 44 44 46 47 48 49 50 51 51 52 52 51 49 46 44 42 41 40 41 42 43 44 44 44 44 44 45 45 45 45 45 45 45 45 45 45 45 47 49 52 53 55 56 58 61 63 66 67 69 71 72 74 75
17 19 19 21 25 29 34 36 36 38 42 44 47 48 47 47 46 45 44 43 43 43 43 43 43 42 41 41 41 41 42 42 42 42 42 43 44 45 46 47 48 48 49 49 49 48 45 42 40 39 38 39 40 41 41 41 41 41 41 41 41 41 41 40 40 40 41 43 44 44 45 46 48 50 54 57 60 62 64 66 68 70 72 74 75 77 78 79
18 22 22 23 27 32 35 38 38 36 39 43 45 47 47 47 46 46 45 44 44 43 43 43 42 42 41 41 41 40 40 39 40 41 41 42 43 44 45 45 46 46 47 46 44 41 38 37 36 37 37 38 39 39 39 39 38 38 38 38 38 38 38 38 39 40 42 44 46 46 48 50 52 54 57 61 64 67 69 71 72 74 76 78 79 81 82 83
20 26 28 27 28 33 38 40 40 38 37 40 42 45 45 45 45 45 45 45 45 44 43 43 43 42 41 39 38 38 38 38 39 40 41 41 42 43 43 43 44 44 43 40 37 35 34 34 35 36 36 36 36 36 36 36 36 36 36 36 36 36 37 39 40 42 44 47 49 50 51 53 56 58 61 65 68 71 74 75 77 78 79 81 83 85 86 86
22 29 31 32 31 33 38 40 40 39 38 37 38 40 42 43 43 43 44 44 44 43 43 42 41 39 37 36 35 36 37 37 38 39 39 40 40 40 41 41 41 39 36 33 32 31 32 33 33 33 33 34 33 34 34 34 35 35 35 35 36 37 38 41 43 45 47 50 52 52 53 56 60 63 65 68 71 74 77 78 80 82 83 84 86 88 89 89
24 30 33 33 34 34 35 38 39 40 39 38 37 37 37 39 40 40 41 41 40 39 38 37 35 34 33 32 33 34 35 36 36 37 36 36 37 38 39 37 35 32 30 29 29 29 30 30 30 30 31 31 31 31 32 34 35 35 35 35 37 39 42 44 47 49 50 52 53 54 54 56 61 66 69 72 75 77 80 82 83 85 86 87 88 90 91 92
24 29 33 34 35 36 35 37 39 40 40 40 39 37 35 34 32 33 34 35 34 33 32 31 31 30 30 30 31 32 33 34 33 33 33 35 36 35 33 31 28 27 26 26 27 28 28 28 28 28 29 29 29 30 32 33 34 35 36 36 37 41 45 48 51 52 53 53 55 55 56 58 61 66 71 74 78 80 82 84 86 87 88 89 90 92 94 94
26 27 32 35 34 35 37 38 39 40 40 40 39 37 35 32 28 27 29 29 29 29 28 28 28 29 29 30 30 31 31 30 30 31 33 33 32 30 27 25 24 24 24 25 25 25 25 25 26 26 27 28 29 30 31 31 32 34 36 38 40 43 47 50 52 54 54 55 57 57 58 61 64 69 74 77 81 84 85 86 87 88 90 91 92 93 95 97
28 26 30 33 31 32 35 36 37 38 38 38 37 35 33 31 28 27 27 28 27 27 27 27 27 28 28 28 28 28 28 28 29 30 30 29 26 24 22 21 21 22 23 23 24 24 24 24 24 25 26 28 29 30 30 30 31 35 38 41 43 45 48 52 53 54 56 57 58 59 61 64 67 71 77 81 85 88 88 88 88 89 91 92 93 94 96 98
30 27 28 29 29 30 31 31 32 33 33 33 32 31 30 29 28 27 27 26 26 25 25 26 25 25 25 26 26 26 26 27 28 27 25 23 21 19 18 19 19 20 21 22 22 22 22 23 24 25 26 28 29 28 28 29 33 37 41 43 43 45 49 53 55 56 57 59 61 61 63 67 71 74 79 84 87 90 91 91 90 91 93 94 95 95 97 99
33 30 28 27 26 26 27 28 27 26 26 27 27 27 27 26 25 25 25 24 23 23 22 22 21 22 24 24 25 25 26 25 23 21 20 18 16 16 16 17 18 19 20 20 20 20 21 22 23 25 27 27 26 26 27 31 36 39 42 44 42 43 48 52 56 58 59 62 65 65 66 70 74 77 82 85 89 93 94 93 92 92 94 95 96 97 97 99
36 33 28 25 25 23 23 24 22 21 22 23 23 23 22 21 21 22 21 20 18 17 17 18 20 22 23 24 24 24 22 20 18 17 15 14 14 14 16 17 18 18 18 18 18 19 20 22 24 26 26 25 25 27 30 33 36 38 41 45 45 43 46 51 55 58 61 63 67 69 70 72 75 78 82 87 91 95 97 96 94 94 95 96 98 98 98 99
36 34 28 24 24 23 22 20 19 19 20 20 19 17 16 16 17 17 15 13 13 14 17 19 21 22 22 22 21 19 17 15 14 13 12 12 13 14 15 16 16 16 17 17 17 18 20 23 24 25 25 26 28 29 30 30 32 35 38 43 46 45 46 50 54 57 61 65 68 70 72 74 76 79 84 88 92 96 98 98 96 95 96 97 99 99 99 99
35 33 28 23 22 22 22 21 19 18 17 15 14 13 12 12 13 13 12 12 14 17 19 20 21 21 20 18 16 14 13 12 11 10 11 12 13 14 15 15 15 15 15 14 15 18 21 23 24 25 26 27 28 29 31 32 34 37 39 41 45 48 48 50 54 57 61 67 70 70 73 75 77 81 86 90 93 96 99 99 97 96 96 98 99 100 100 100
33 31 27 23 21 20 19 18 17 15 13 13 12 11 10 10 9 10 11 13 15 17 18 19 19 17 15 13 12 11 10 9 9 9 11 12 14 14 14 14 13 12 12 13 16 19 21 22 24 25 27 27 28 30 32 35 37 39 42 44 46 49 52 53 56 60 62 67 71 71 74 78 80 83 88 90 93 97 99 99 97 96 97 98 99 101 101 102
32 30 27 24 22 20 18 16 15 14 13 13 12 10 8 7 7 9 11 14 15 16 18 18 15 12 11 11 10 9 7 8 9 10 11 13 13 13 12 11 11 10 11 14 16 18 19 22 24 26 27 28 30 32 34 37 40 42 45 47 47 49 54 56 57 61 63 66 71 74 76 80 84 85 87 90 93 98 99 99 97 97 97 98 100 103 104 104
32 32 29 25 22 20 18 16 15 15 14 13 12 9 8 7 9 12 14 16 17 18 16 13 11 10 10 9 8 6 7 8 9 11 12 13 12 11 10 10 10 11 12 14 15 17 19 22 24 26 27 29 31 33 36 39 41 44 46 50 52 52 53 56 58 61 65 67 72 75 75 79 84 84 86 90 93 97 101 100 99 98 98 100 103 105 106 106
32 33 31 27 24 21 19 18 17 17 16 15 13 11 10 10 13 16 17 18 18 16 12 10 9 9 9 7 5 6 8 10 12 13 12 11 10 9 9 10 10 11 12 13 15 17 19 21 23 25 27 30 33 35 38 41 43 46 49 52 55 54 52 54 58 62 66 69 72 76 76 77 81 85 87 90 93 98 103 102 99 98 99 102 105 106 108 108
31 33 33 30 27 25 23 22 21 19 18 16 14 13 13 14 17 18 18 18 15 12 9 9 10 9 6 5 5 8 11 12 12 11 9 8 9 8 9 9 10 11 13 14 15 17 18 20 22 25 28 30 33 37 40 43 47 51 54 54 55 57 57 57 59 63 67 70 71 75 78 77 80 84 87 89 94 98 102 102 100 100 101 103 106 108 110 111
29 32 33 33 30 28 26 24 22 20 18 17 16 16 17 18 19 19 19 16 12 10 9 10 9 6 4 5 8 11 12 12 10 8 7 8 8 8 9 9 10 12 14 14 15 16 17 19 22 25 28 30 33 37 42 46 50 52 54 56 57 59 61 60 62 65 69 71 72 75 78 77 78 84 88 90 94 98 101 102 102 102 103 104 107 110 112 113
27 29 32 32 31 30 28 26 23 21 19 18 18 19 20 20 20 19 16 12 10 10 11 10 8 5 5 9 11 13 12 11 9 8 8 8 8 9 9 10 11 12 14 14 14 16 18 20 22 24 27 31 35 39 45 48 50 52 54 57 60 61 63 64 65 68 70 72 73 74 76 78 79 85 90 92 94 97 100 103 105 106 106 106 108 110 113 115
25 27 29 30 31 30 29 26 24 23 22 21 21 21 21 21 19 16 13 11 11 11 11 9 7 6 9 12 14 13 11 10 9 8 8 7 8 9 10 10 11 12 13 14 15 17 18 20 22 24 28 34 38 42 46 49 50 53 56 58 61 63 66 67 67 67 69 71 72 73 75 81 85 86 89 91 93 97 102 105 107 108 108 107 108 111 115 117
24 25 26 28 29 29 28 27 25 24 23 22 22 21 20 18 15 13 11 12 12 12 10 8 8 9 12 14 14 12 11 10 9 8 7 7 8 9 10 11 11 11 12 15 17 18 19 21 23 26 30 35 40 43 46 48 50 53 56 59 63 66 68 69 68 67 68 71 73 76 78 83 87 89 91 93 95 100 105 107 108 109 109 109 110 111 115 118
23 24 24 25 26 26 26 25 24 23 22 21 19 18 17 15 14 12 12 14 13 11 9 8 10 12 14 14 13 11 10 9 8 8 7 7 8 9 9 10 12 13 14 16 18 19 21 24 26 30 33 37 41 44 45 48 51 53 56 59 61 64 66 69 70 68 68 71 75 79 81 83 86 90 94 97 100 103 107 109 110 111 111 111 112 113 115 118
22 23 23 23 22 22 22 21 21 20 19 18 17 16 15 14 13 13 14 15 12 10 10 11 13 14 14 13 11 10 10 9 9 8 7 7 8 10 10 10 11 13 15 17 19 22 25 28 31 34 36 39 42 45 47 50 52 54 55 55 57 61 63 67 70 70 68 71 75 79 83 86 87 90 95 100 103 105 106 108 110 111 112 112 113 114 115 117
22 22 22 22 21 21 21 20 20 20 19 19 17 16 15 14 14 15 15 13 11 10 12 13 14 14 13 11 10 10 9 9 8 7 7 8 9 10 11 12 12 14 17 21 24 27 29 31 34 37 38 40 43 46 48 51 52 53 54 55 58 60 62 65 69 71 71 72 77 81 84 88 90 92 96 100 103 104 105 107 109 111 113 113 113 113 114 116
23 23 23 23 23 23 22 21 21 20 19 18 16 15 15 16 16 16 14 13 12 13 14 14 14 13 11 10 10 9 9 8 7 7 7 9 10 12 13 14 16 18 20 22 25 27 30 33 36 38 40 42 43 44 47 49 51 53 55 56 58 59 62 64 66 71 74 74 78 82 83 86 90 93 96 100 102 104 105 107 110 112 113 114 114 115 116 117
24 25 25 24 24 23 22 21 21 19 18 17 16 16 17 17 16 15 14 13 14 15 15 14 13 11 10 10 9 9 9 8 8 8 9 10 12 13 14 15 17 19 20 21 23 26 30 33 35 37 39 41 41 42 44 48 51 54 57 58 58 59 63 65 66 70 75 76 78 81 83 84 89 93 96 100 102 104 106 109 110 112 114 116 116 117 119 120
25 25 24 24 23 22 21 20 19 18 17 18 18 19 18 17 15 14 14 14 15 15 14 13 12 11 10 9 9 9 9 9 9 9 10 11 13 13 14 16 18 20 22 24 26 28 31 34 34 36 39 41 42 42 45 49 53 57 61 63 64 66 68 70 72 73 76 77 76 79 84 87 91 94 97 100 103 105 107 109 111 114 117 118 118 118 119 120
24 24 23 22 21 20 19 18 18 18 19 19 20 20 18 16 15 15 15 15 15 15 13 12 11 10 10 9 9 9 9 9 10 11 12 13 14 15 16 18 20 22 24 26 28 30 33 36 38 39 41 44 46 47 48 51 54 58 63 66 69 70 71 73 75 74 76 78 78 80 86 90 91 93 96 99 103 105 107 110 113 117 119 120 119 119 119 120
23 22 21 20 19 18 18 19 19 20 21 21 20 19 17 16 16 16 16 16 15 14 12 11 11 10 10 10 10 9 9 10 11 12 13 14 15 16 18 20 21 23 25 27 29 31 33 36 39 41 43 46 50 52 53 54 57 61 65 68 71 73 74 74 73 73 76 81 83 82 85 88 89 91 94 99 104 107 110 113 115 117 119 120 121 120 120 121
21 20 19 18 18 19 20 20 21 21 21 21 19 18 17 17 17 17 17 16 15 13 12 11 11 11 11 10 10 10 10 11 12 13 14 15 16 18 20 21 23 25 26 28 30 32 34 36 39 43 45 48 51 54 57 59 61 64 67 70 72 74 76 76 73 73 75 79 83 85 85 88 91 93 95 100 104 107 111 114 115 116 118 120 121 121 121 122
19 18 18 18 19 21 22 22 22 22 21 20 19 18 18 18 18 18 17 16 14 13 13 12 12 12 11 11 11 11 11 12 13 14 15 16 18 19 21 23 25 26 27 29 31 33 36 39 41 44 46 49 51 54 58 61 63 66 70 73 74 75 77 80 79 77 77 78 82 85 88 90 93 95 97 99 101 105 109 112 114 116 118 119 121 122 122 123
18 18 18 20 21 22 23 23 22 22 21 19 19 18 18 19 19 18 17 16 15 14 14 13 13 12 12 12 12 12 13 14 14 15 16 18 19 20 22 25 26 28 29 30 32 34 37 40 42 45 48 51 53 56 58 61 63 66 69 72 74 76 77 80 83 83 82 83 84 86 89 92 95 96 98 99 101 104 107 112 115 116 119 121 122 122 123 123
17 18 20 22 23 23 23 22 22 21 20 19 18 19 19 19 19 18 17 16 15 15 14 14 13 13 13 12 13 14 14 15 15 16 18 19 21 22 24 26 28 29 30 31 33 35 38 41 44 46 49 52 55 58 61 64 65 67 70 73 75 76 77 79 82 85 85 86 88 89 90 92 94 96 97 99 102 105 108 112 116 118 120 122 123 124 124 125
18 20 22 24 24 24 23 22 21 20 19 19 19 19 20 19 19 18 17 17 16 16 15 14 14 14 14 14 14 15 15 16 17 18 19 21 23 24 26 27 29 30 31 33 34 36 38 41 44 47 50 53 56 60 63 66 68 70 72 74 76 77 78 79 82 86 87 88 91 93 92 91 92 95 97 100 103 107 110 113 116 120 122 123 123 124 125 126
21 23 24 24 24 23 22 21 21 20 19 19 20 20 20 20 19 18 18 17 17 16 16 16 16 15 15 15 16 16 17 17 18 19 21 23 24 26 27 29 30 32 33 34 36 37 39 41 44 47 50 53 56 60 63 66 68 71 73 75 76 77 79 81 83 86 89 89 89 93 95 94 93 95 98 100 103 106 109 112 116 120 122 122 123 123 124 126
23 24 24 24 24 23 21 21 20 19 19 20 21 21 20 20 19 18 18 18 17 17 17 17 17 17 16 17 18 18 19 19 20 21 23 24 26 27 29 30 32 33 34 36 37 39 40 41 42 45 49 52 55 58 62 65 67 69 72 74 76 77 79 81 84 86 89 90 88 90 95 96 95 95 97 99 101 104 107 110 114 118 120 121 122 123 124 126
24 25 24 24 23 22 21 21 20 20 20 21 21 21 20 19 19 19 18 18 18 18 19 19 19 18 18 18 19 21 21 22 23 24 25 26 28 29 31 32 34 35 36 38 39 41 42 42 42 44 47 49 52 55 59 64 67 69 71 74 76 77 79 81 83 85 87 90 89 89 92 96 96 95 96 97 99 102 106 109 112 116 118 119 121 122 124 126
24 24 24 23 22 21 21 20 20 21 21 21 22 21 20 19 19 18 19 19 19 20 20 21 21 20 20 21 21 22 24 24 25 26 27 28 30 31 33 34 36 37 38 40 41 43 44 46 46 47 49 51 54 58 61 66 69 71 72 75 77 78 79 81 84 85 86 89 92 92 91 93 94 94 94 96 98 100 104 107 110 113 116 118 120 122 124 126
25 24 23 22 22 21 20 20 21 22 22 22 22 21 21 20 19 19 19 20 20 21 22 22 23 23 23 23 23 24 25 26 27 28 29 30 32 33 34 36 38 39 40 41 42 44 46 49 50 51 53 56 59 62 65 68 71 73 73 75 77 77 79 81 84 86 87 88 91 93 91 91 92 92 93 95 97 99 102 105 108 112 115 118 120 122 124 126
25 24 23 22 21 20 21 21 22 23 23 23 23 22 21 20 20 20 20 21 21 22 22 23 24 24 25 25 25 26 26 27 28 29 30 32 33 34 36 37 38 40 41 42 43 45 47 50 53 53 55 58 60 63 66 68 71 74 74 75 77 78 79 81 83 86 88 87 88 92 93 93 92 92 92 94 96 99 102 104 108 112 115 117 120 122 124 126
24 23 22 21 21 21 21 21 22 23 23 24 23 23 22 22 22 22 22 22 22 22 23 24 25 26 27 27 27 28 28 29 29 30 32 33 34 36 37 38 39 40 42 43 44 46 48 50 54 56 57 59 61 64 67 69 72 74 75 75 76 78 78 80 82 85 87 88 87 89 92 93 92 92 92 94 96 99 102 105 108 112 114 116 119 121 123 125
24 23 22 21 21 20 21 22 22 23 24 24 24 24 23 23 23 23 24 23 23 24 25 25 26 27 28 29 29 30 30 30 31 32 33 34 35 37 38 39 40 41 42 44 45 46 48 51 53 57 59 61 63 65 68 70 72 74 75 75 76 78 78 79 81 84 86 87 87 88 90 92 93 92 93 94 97 99 102 105 108 111 113 115 118 120 122 124
24 23 22 21 21 21 21 22 23 24 25 25 25 25 25 25 25 25 25 26 26 27 27 28 28 29 30 31 31 32 32 32 33 34 35 36 36 38 39 40 41 42 43 45 46 48 49 51 53 56 59 61 64 66 68 70 72 74 75 74 75 78 79 79 81 83 85 86 87 88 89 91 92 92 93 94 96 98 100 104 107 110 112 114 117 119 121 122
24 23 22 21 21 21 21 22 24 25 26 26 27 26 26 26 27 27 28 28 29 29 30 30 31 32 32 32 33 34 34 34 35 35 36 37 38 39 40 41 43 44 45 46 48 50 51 53 55 57 60 62 64 66 68 70 72 73 74 73 74 77 80 80 81 83 85 85 86 87 89 91 91 90 90 92 94 96 99 102 105 108 111 114 116 118 120 121
24 23 23 22 21 22 22 23 24 25 27 27 28 28 28 28 29 30 30 31 31 32 33 33 34 34 34 34 34 35 36 37 37 37 38 39 39 40 41 42 44 45 47 48 50 52 53 55 56 58 61 64 65 67 69 70 72 73 73 72 73 76 79 81 81 83 85 86 86 87 89 91 91 89 89 91 93 94 98 101 104 107 110 113 116 118 120 121
Wind_Direction
248 239 229 223 220 217 214 214 214 217 220 222 224 227 229 230 232 234 238 240 242 244 246 249 251 254 256 258 260 262 264 267 269 271 272 274 275 277 279 280 282 283 285 287 288 290 292 294 296 297 299 300 301 302 302 302 303 303 304 304 305 306 306 306 305 305 304 303 302 302 301 301 299 296 294 294 293 292 292 292 292 291 291 291 289 289 288 287
253 242 231 224 219 213 209 209 210 213 217 220 222 225 228 229 230 233 236 238 240 242 244 247 250 252 255 257 260 262 265 267 269 271 272 274 276 278 280 281 283 285 287 288 290 292 295 296 298 300 301 302 303 303 304 304 305 306 306 307 308 309 309 308 306 304 302 300 299 298 298 297 295 293 292 293 293 293 293 293 293 293 293 293 292 290 289 288
258 245 233 225 218 210 206 206 207 210 215 219 222 225 228 229 229 232 234 237 238 240 242 245 248 251 255 258 260 263 265 267 270 272 273 276 278 279 281 284 286 287 288 290 293 295 297 299 301 302 303 304 305 305 306 306 307 308 310 311 312 311 309 306 303 300 298 297 295 295 295 295 295 295 295 296 297 298 298 297 296 296 296 297 297 296 294 293
258 245 233 224 216 207 204 205 207 210 213 216 220 223 226 228 229 231 234 236 238 240 243 246 249 252 255 259 261 264 266 269 271 274 276 278 280 282 284 285 287 288 291 293 296 298 300 302 303 304 305 305 306 307 308 309 311 313 314 314 312 308 304 301 299 298 296 295 294 295 295 297 299 302 303 303 304 305 305 305 304 303 302 302 303 302 301 300
255 239 226 218 211 203 200 205 210 212 214 216 218 221 223 224 226 229 233 237 240 242 245 248 251 254 256 260 263 266 269 272 274 276 279 281 282 284 285 287 289 291 294 297 299 301 302 303 304 305 306 307 308 310 312 314 316 316 314 312 308 304 302 300 298 297 296 296 297 298 301 304 309 313 313 312 312 312 313 314 314 313 312 311 310 309 308 306
246 227 217 211 204 200 197 200 210 213 215 218 219 221 222 222 224 226 230 235 239 242 245 249 251 254 257 261 264 268 271 274 276 278 280 282 283 285 286 289 292 295 297 299 301 302 304 305 306 307 308 310 313 315 317 316 315 313 310 308 306 304 302 301 300 299 301 303 304 307 311 314 318 322 323 323 323 323 323 323 323 322 321 319 318 316 314 312
235 214 206 206 197 195 196 198 207 211 214 218 220 222 222 223 223 225 228 232 237 240 244 248 251 255 258 262 265 269 272 275 278 280 281 282 284 286 289 293 295 298 299 301 303 304 306 307 308 310 313 316 318 318 316 313 311 310 309 308 308 307 306 306 306 308 311 313 315 318 321 323 325 328 331 332 332 331 331 330 329 328 326 325 324 322 320 317
222 204 193 201 197 192 197 201 205 210 216 220 222 223 223 223 225 225 228 232 235 240 244 248 252 255 259 263 267 270 274 276 278 280 281 283 286 290 293 295 297 299 301 303 305 306 308 310 313 317 319 318 316 314 312 311 310 312 313 314 315 314 315 315 316 319 322 324 326 328 331 333 334 336 338 339 339 337 336 335 333 332 331 330 329 327 325 322
209 201 192 194 198 196 201 203 205 209 216 224 226 227 226 225 226 228 230 233 237 241 245 249 253 257 261 265 269 272 275 277 279 280 283 286 290 293 296 298 300 302 303 305 307 309 312 316 319 319 317 314 312 311 311 313 315 318 321 323 323 323 324 325 326 328 330 332 334 336 338 341 342 343 344 344 343 342 340 338 336 335 334 333 332 331 329 327
202 201 199 194 194 199 206 207 207 210 215 223 230 232 231 230 230 231 233 236 239 242 246 251 256 260 265 268 271 274 276 278 280 283 286 290 293 295 298 300 302 304 305 307 310 315 318 319 318 314 312 311 312 314 317 321 325 327 330 331 331 330 330 332 333 335 338 339 340 341 343 347 348 348 348 347 346 344 342 341 339 337 336 335 335 334 332 330
205 199 203 200 194 197 207 211 210 213 216 220 227 232 234 234 234 235 237 240 242 246 250 255 259 264 268 271 274 276 278 280 283 287 290 293 296 298 300 302 303 305 308 312 316 319 318 315 312 311 312 314 318 323 328 332 334 335 336 337 338 337 338 340 341 342 344 344 344 345 347 350 352 351 351 350 349 347 345 343 341 339 338 337 336 335 334 332
211 200 202 204 200 197 203 211 212 215 218 222 226 231 235 238 239 240 242 245 248 251 254 258 263 267 271 275 277 279 281 284 288 291 294 295 297 299 301 303 305 309 313 318 319 317 313 310 311 313 316 322 328 334 337 340 341 342 342 343 345 344 345 346 347 347 348 348 349 351 350 351 353 352 351 351 350 348 347 345 343 341 339 337 337 336 336 334
214 203 202 207 206 201 203 209 213 216 219 224 228 232 237 241 243 245 247 250 252 254 258 262 266 270 274 277 279 281 285 288 291 294 295 297 298 299 301 305 310 315 318 317 314 310 310 311 314 318 324 331 336 340 344 346 348 348 348 348 350 350 350 350 350 351 351 352 353 354 353 352 354 353 352 352 351 350 348 346 344 341 339 338 337 337 337 337
213 206 203 209 209 205 207 211 214 218 221 225 229 233 238 243 246 248 249 252 255 258 262 266 269 272 276 277 280 283 287 291 293 294 295 296 298 300 304 310 315 316 314 310 308 309 312 316 321 327 334 340 345 348 351 352 353 354 353 354 353 353 354 353 353 354 353 354 356 356 355 354 354 355 354 353 352 351 349 347 344 342 340 339 338 338 338 338
210 210 206 209 210 209 211 214 216 219 222 226 230 234 239 242 246 248 251 255 259 263 265 268 270 272 275 277 280 286 289 292 293 294 294 295 298 303 309 313 313 309 306 305 308 313 319 325 331 337 344 349 352 354 355 356 358 359 358 357 356 356 359 359 357 356 355 356 357 358 357 356 356 356 355 355 354 352 350 348 346 344 342 340 339 339 340 340
204 211 209 206 208 209 210 213 216 219 223 228 232 235 238 243 247 251 255 259 261 263 264 266 267 269 272 277 282 287 290 291 291 291 292 295 300 306 311 309 305 302 303 306 312 320 327 333 341 348 353 355 356 356 358 0 2 3 2 1 360 359 1 3 0 358 357 357 358 358 358 357 357 357 356 356 355 353 351 349 347 345 343 341 340 340 340 341
201 210 211 204 202 204 206 208 209 214 220 224 228 233 238 243 247 250 252 254 256 257 258 260 263 267 272 279 284 287 289 289 288 288 291 296 303 305 304 300 300 302 306 312 320 329 337 345 352 357 358 357 358 359 2 4 4 4 5 4 2 360 1 4 3 360 358 358 359 359 359 358 357 357 357 356 355 353 351 350 347 345 344 342 341 341 341 341
201 207 209 203 199 201 205 209 208 210 214 218 223 227 231 236 239 240 240 241 247 250 252 256 261 268 275 281 284 286 286 283 282 285 292 299 300 297 296 296 300 305 311 321 333 343 349 355 358 358 356 357 360 2 2 1 1 1 4 4 1 359 0 4 5 2 360 360 1 1 359 358 357 357 358 357 355 354 352 350 348 346 345 343 342 342 342 342
201 205 205 201 199 200 204 209 211 212 215 218 217 215 222 230 232 232 227 230 240 246 251 258 266 274 278 281 283 281 277 275 278 286 292 292 289 289 292 295 302 311 321 335 347 352 354 356 357 357 358 0 2 2 360 358 358 359 1 3 2 359 360 4 5 4 2 1 2 2 360 359 358 358 358 357 355 354 352 350 349 348 346 345 343 343 343 343
200 202 201 198 197 199 201 204 206 208 212 212 208 208 218 222 223 227 229 235 243 249 259 268 274 277 278 280 277 270 266 270 279 283 284 282 281 285 291 300 312 323 331 342 350 353 355 356 357 360 3 3 1 359 358 359 359 360 1 3 4 1 360 4 6 5 4 3 2 3 2 359 359 359 358 357 355 354 353 351 350 349 348 346 344 344 344 345
198 200 201 198 197 197 197 198 197 199 203 205 208 214 216 213 223 235 241 247 253 263 271 274 275 275 273 268 260 254 261 271 274 273 275 276 279 286 296 309 320 324 330 343 352 355 357 358 359 2 3 1 360 359 359 360 360 0 1 2 4 4 1 3 5 5 4 3 1 2 3 1 360 360 358 357 356 355 354 352 351 350 348 347 346 346 346 346
196 198 201 201 200 199 198 198 198 201 207 212 220 229 225 221 234 242 246 254 265 273 274 271 270 266 259 250 243 247 259 263 263 265 269 274 281 291 303 314 320 326 338 351 355 356 358 360 1 2 2 0 359 359 359 360 0 0 1 2 3 5 3 2 3 3 2 3 1 1 3 2 359 358 358 358 357 356 355 354 352 351 350 348 348 348 347 347
194 196 199 202 202 201 200 201 206 212 217 224 235 243 237 233 239 244 252 263 271 273 267 263 258 248 240 233 230 243 250 254 257 262 269 276 285 298 311 320 326 335 347 354 355 357 359 359 0 0 360 359 358 359 359 359 359 0 1 2 1 1 2 2 3 3 1 1 1 359 0 1 359 358 358 358 357 357 356 355 353 351 351 351 350 349 349 348
193 195 198 201 203 203 205 208 213 219 226 235 243 245 243 244 246 251 261 268 268 263 257 250 239 229 221 215 224 238 245 251 256 264 275 285 294 307 319 323 330 339 348 352 354 356 357 356 357 358 357 357 358 358 358 358 359 0 360 360 359 359 360 1 3 3 1 360 360 358 358 359 359 358 358 358 358 358 357 354 353 353 353 353 352 351 350 350
192 195 198 201 203 206 210 214 218 224 232 238 241 243 246 248 251 259 264 263 255 248 243 233 220 208 198 209 224 234 241 246 254 265 276 288 304 317 324 330 339 346 349 351 351 352 352 353 353 354 355 355 357 358 358 359 359 359 357 357 357 358 358 359 1 2 1 359 359 358 357 357 359 358 358 358 358 358 357 355 354 355 355 355 354 353 352 351
189 193 197 201 204 208 212 216 221 228 234 236 239 244 247 251 255 259 256 248 243 238 228 216 203 185 194 214 224 231 237 245 253 263 276 293 316 325 330 341 349 348 346 345 346 347 349 350 350 350 352 354 356 358 359 358 357 356 356 355 355 356 356 358 360 1 360 358 357 357 355 356 359 359 358 358 358 357 357 357 357 357 356 356 356 355 354 353
186 190 195 200 204 209 213 217 222 228 231 234 239 244 248 251 251 246 239 237 233 224 211 199 187 185 204 216 223 231 239 247 256 264 278 296 316 328 337 347 352 346 341 342 344 345 346 346 346 347 351 356 358 359 358 357 356 355 355 355 354 354 355 356 357 359 359 357 356 355 355 357 358 359 358 357 357 358 358 359 358 358 357 357 357 357 356 356
182 185 190 196 201 207 211 216 220 225 229 234 239 243 243 240 234 229 230 228 218 207 197 185 187 200 211 217 225 236 244 252 260 268 281 295 312 330 343 349 349 342 338 341 344 344 344 344 346 349 352 356 357 357 356 356 355 355 355 355 354 354 354 354 354 357 357 356 356 356 357 357 357 357 358 358 358 359 360 360 359 359 358 358 358 359 359 358
177 180 185 190 196 201 206 211 216 221 226 228 229 228 224 220 221 224 223 215 206 195 186 185 195 206 213 221 230 240 247 254 259 267 279 293 312 327 336 343 348 347 342 341 341 343 345 347 350 352 354 355 356 355 355 355 355 354 354 354 354 353 353 352 352 354 356 357 356 356 357 357 357 357 358 358 359 0 0 360 359 359 359 359 359 0 1 -0
172 175 179 183 187 192 196 201 204 208 209 208 208 209 211 215 220 219 211 204 196 185 185 192 201 208 217 228 236 242 247 253 259 270 288 305 319 323 323 327 337 341 341 341 344 349 351 352 353 354 354 355 355 354 354 354 354 353 353 353 353 352 352 352 351 351 355 357 357 357 356 356 358 359 359 359 360 0 0 360 359 360 360 1 1 1 2 1
165 167 169 171 173 176 178 180 184 187 191 194 199 204 211 214 211 206 199 193 188 186 191 198 205 213 224 233 240 246 251 257 267 284 305 315 313 309 309 314 321 330 340 347 351 353 353 353 354 353 353 353 354 354 353 353 352 351 351 352 352 352 352 352 351 350 353 357 357 357 357 356 357 359 360 360 360 360 0 0 360 0 1 1 2 2 2 2
158 159 159 160 161 164 167 172 177 183 189 194 200 205 207 204 199 194 189 186 189 193 197 202 210 219 228 236 243 249 251 255 267 282 295 300 300 303 312 322 329 336 342 345 346 346 348 350 352 352 351 351 351 352 351 351 350 350 350 350 350 351 351 352 352 352 353 356 358 357 357 357 357 358 360 360 360 360 0 1 1 1 1 2 2 2 2 3
154 154 155 156 160 164 169 174 180 186 191 195 199 199 197 193 191 188 186 188 194 197 202 208 214 221 230 239 246 248 248 252 264 280 291 298 306 313 321 326 329 332 333 334 338 343 346 347 348 348 348 348 347 348 349 349 349 349 349 349 349 350 351 351 353 354 353 355 358 356 356 358 358 358 360 360 360 360 0 1 1 1 2 3 3 3 3 4
153 154 156 159 163 168 172 177 183 189 193 193 192 191 189 187 186 186 189 193 197 200 205 211 217 224 234 242 248 250 251 259 272 285 296 304 309 313 318 320 323 326 331 335 339 344 346 345 344 345 345 345 345 345 347 348 349 350 350 349 350 350 351 351 353 355 354 354 356 357 356 358 359 358 359 360 360 360 0 0 1 2 2 3 4 4 4 4
154 156 159 162 167 172 177 182 188 190 190 188 187 187 185 185 186 190 193 197 201 204 208 215 222 231 239 247 252 254 258 268 279 288 296 304 307 312 315 318 323 327 332 337 340 342 344 345 344 345 346 346 346 346 347 348 349 350 351 351 350 350 351 352 353 354 354 353 355 358 358 357 358 358 358 360 360 360 -0 0 1 2 2 3 4 4 5 5
157 159 162 167 173 179 183 186 188 187 186 186 186 185 185 186 190 194 198 201 204 208 213 220 229 237 245 252 256 259 266 275 283 289 296 303 307 311 316 320 326 329 332 336 339 340 341 343 343 344 346 347 347 347 347 348 349 350 351 351 350 350 350 351 352 353 355 354 354 357 358 357 357 358 359 360 -0 360 0 1 1 2 2 2 3 4 5 5
161 163 168 174 181 184 185 185 185 184 185 186 186 185 187 190 194 197 200 203 206 211 218 225 234 242 249 255 261 268 275 280 285 289 295 301 305 311 317 323 327 329 332 335 338 339 340 341 343 344 345 346 347 348 348 349 349 350 350 351 351 351 349 349 351 353 355 355 354 355 356 356 356 357 359 360 360 360 -0 0 1 1 2 2 3 4 5 5
166 170 176 182 184 184 183 183 183 184 185 186 186 187 191 194 197 199 202 205 209 215 223 231 238 246 253 260 268 274 280 283 285 288 293 298 303 310 317 323 326 327 330 333 337 339 340 341 342 343 344 345 346 347 348 348 349 349 350 350 350 350 350 349 350 352 354 355 355 355 355 356 356 357 358 359 359 360 360 360 0 1 1 2 4 5 5 6
172 177 182 183 183 182 182 183 184 185 186 187 188 191 195 197 199 201 204 207 214 221 228 235 243 251 258 264 272 277 280 282 283 285 291 296 303 309 316 321 323 325 328 332 335 338 339 340 341 342 344 345 345 346 347 348 349 349 349 349 349 350 350 350 350 351 352 354 355 355 355 355 355 356 357 358 359 359 359 360 0 0 1 2 3 5 5 6
179 182 182 181 180 181 183 184 185 186 187 189 192 196 199 200 201 204 207 212 219 226 232 240 248 255 260 263 269 275 278 280 281 284 290 297 302 308 314 318 321 324 327 330 334 337 338 339 340 341 343 344 345 346 347 348 348 348 348 349 350 350 350 351 351 350 351 353 354 355 355 355 355 355 355 357 358 358 359 359 360 0 1 2 2 4 5 6
181 181 180 180 181 183 184 186 187 188 189 192 197 201 202 204 206 208 212 217 224 231 239 246 252 257 261 263 267 273 277 279 282 287 293 298 303 307 312 316 319 323 326 329 331 334 336 337 339 340 342 343 344 346 347 347 347 347 348 349 349 349 350 351 351 351 351 353 353 353 354 355 354 354 355 356 357 357 358 358 359 360 1 1 2 3 4 6
180 180 180 181 183 185 187 188 189 190 193 197 201 204 205 208 211 212 216 222 229 237 245 251 256 261 264 265 268 272 277 281 285 290 295 300 304 307 311 314 317 321 324 327 329 331 334 336 338 339 340 342 344 345 346 347 346 346 347 348 349 349 349 350 351 351 351 352 353 353 352 353 354 354 355 356 356 356 356 357 358 359 360 0 1 2 3 5
181 181 182 183 185 187 189 190 192 194 198 202 205 208 210 212 215 217 221 227 234 242 250 255 260 264 268 269 270 273 277 282 287 292 296 301 304 307 310 313 316 319 322 324 327 329 331 334 336 338 339 341 342 343 344 345 346 346 346 347 348 349 350 350 351 351 351 351 352 353 352 352 353 354 354 355 355 355 355 356 358 358 359 359 0 2 3 5
183 183 185 187 188 189 191 192 195 199 204 208 210 213 215 217 220 223 226 232 239 247 254 259 263 267 271 272 272 274 278 282 287 291 296 300 303 306 309 312 315 317 320 322 324 326 328 331 334 336 338 339 340 342 344 345 345 345 345 346 347 349 350 350 350 350 351 350 350 352 353 352 352 352 353 353 354 354 355 356 357 357 358 359 0 1 3 4
185 186 188 190 191 192 194 196 200 204 209 213 215 217 220 223 226 228 232 238 244 250 255 260 264 268 272 275 276 277 279 282 286 291 295 299 302 305 308 310 313 315 318 321 323 326 328 330 333 335 337 338 340 342 344 345 345 345 346 346 347 348 349 349 349 350 351 350 350 351 353 352 350 351 352 352 353 354 355 356 356 356 357 358 360 1 2 4
187 189 191 193 194 196 198 201 205 209 213 216 219 222 225 228 230 234 238 243 249 253 256 260 264 269 273 276 278 279 281 283 287 291 294 298 301 304 306 309 311 314 317 320 323 326 328 329 332 334 336 338 340 341 343 344 345 345 345 345 346 347 348 348 348 349 350 351 350 349 350 351 350 350 351 351 352 353 354 355 355 356 356 358 359 1 2 3
190 192 194 196 197 199 203 207 211 214 217 220 223 226 229 232 235 239 243 248 252 256 259 263 266 270 274 277 279 281 283 285 288 291 294 297 300 302 305 308 310 313 316 320 323 325 327 328 329 332 335 336 337 339 340 342 343 344 344 344 345 346 347 347 348 348 349 350 350 349 349 350 349 349 351 351 351 353 354 354 355 355 356 357 359 1 2 3
193 195 198 200 201 204 208 212 216 220 222 224 227 230 233 236 239 243 247 251 255 259 262 266 269 273 276 278 280 282 284 287 289 292 294 297 299 302 304 307 310 313 315 318 321 324 325 327 328 330 332 334 335 337 339 340 341 342 342 343 344 344 345 346 347 347 348 348 349 349 348 348 348 348 349 350 351 352 353 353 355 355 356 357 359 0 1 2
197 199 201 204 206 209 213 218 221 225 227 229 232 235 237 240 244 247 251 254 257 261 265 268 271 274 277 279 280 282 284 287 289 292 294 297 299 301 304 306 309 311 314 317 320 322 324 325 327 328 330 332 334 335 337 338 339 340 341 342 342 342 343 345 346 346 347 347 348 348 348 348 347 347 348 350 351 351 352 353 354 355 355 356 358 360 0 1
201 203 205 208 212 215 218 222 226 229 232 234 237 240 242 245 247 250 254 257 260 263 266 270 272 275 277 279 281 282 284 286 289 291 294 296 299 301 303 306 308 311 313 316 318 320 322 324 325 326 328 330 332 333 334 335 337 339 340 340 341 341 342 344 345 345 346 346 347 347 347 347 347 347 347 349 350 350 351 352 353 354 355 356 358 359 360 0
205 207 209 211 216 220 224 228 231 234 236 239 241 245 247 249 252 254 257 260 263 265 268 271 273 275 277 279 281 282 284 286 288 291 293 296 298 300 303 305 307 310 312 314 316 319 320 322 323 325 326 327 329 330 332 333 335 337 338 338 339 341 341 342 344 344 345 345 346 346 347 347 347 346 346 348 349 349 350 351 352 353 354 356 357 358 359 360
209 211 213 216 220 225 229 233 236 238 240 243 246 249 251 253 256 258 260 263 266 268 270 272 274 275 277 279 281 283 284 286 287 290 292 295 297 299 302 304 306 308 311 313 315 317 318 320 321 323 324 325 326 328 330 332 333 335 336 337 339 341 341 341 342 343 343 344 345 346 346 346 345 345 346 347 348 349 349 350 352 353 354 355 356 357 358 359